Location: Gleizolles
(44.4833°N, 6.7667°E)
Time: 16:23:50
(UTC+00:00)

Altair - Pass Details

Date: 27 June 2024
Orbit: 1502 x 1681 km, 47.2° (Epoch: 13 July)

Event Time Altitude Azimuth Distance (km) Brightness Sun altitude
Rises 07:32:06 0° 292° (WNW) 4,743 9.6 36.5°
Reaches altitude 10° 07:35:48 10° 280° (W) 3,784 9.2 37.2°
Maximum altitude 07:43:10 26° 230° (SW) 2,796 8.8 38.5°
Drops below altitude 10° 07:50:43 10° 179° (S) 3,879 9.8 39.8°
Sets 07:54:36 0° 167° (SSE) 4,885 10.3 40.5°
